This is the latest recevied weather packets stored in our database for station/object N7TUG-8. If no packets are shown the sender has not sent any weather packets the latest 10 day(s).
| Time | Temp. | Humidity | Pressure | Rain* | Wind** | Luminosity | Snow |
|---|---|---|---|---|---|---|---|
| 1777888086 | 13.89° C | 75% | 1008.8 hPa | 0 mm | 0.89 m/s, 290° | - | - |
| 1777887793 | 14.44° C | 74% | 1008.8 hPa | 0 mm | 0.45 m/s, 301° | - | - |
| 1777887266 | 15° C | 73% | 1008.7 hPa | 0 mm | 0.45 m/s, 205° | - | - |
| 1777886956 | 15° C | 73% | 1008.7 hPa | 0 mm | 0.45 m/s, 221° | - | - |
| 1777886446 | 15° C | 73% | 1008.7 hPa | 0 mm | 0.45 m/s, 244° | - | - |
| 1777885666 | 15° C | 72% | 1008.6 hPa | 0 mm | 0.45 m/s, 291° | - | - |
| 1777885367 | 15° C | 72% | 1008.5 hPa | 0 mm | 0.45 m/s, 281° | - | - |
| 1777885296 | 15° C | 72% | 1008.5 hPa | 0 mm | 0.45 m/s, 281° | - | - |
| 1777884881 | 15° C | 71% | 1008.6 hPa | 0 mm | 0.45 m/s, 316° | - | - |
| 1777884576 | 15° C | 71% | 1008.6 hPa | 0 mm | 0.45 m/s, 329° | - | - |
| 1777883995 | 15.56° C | 71% | 1008.6 hPa | 0 mm | 0.45 m/s, 288° | - | - |
| 1777883055 | 15.56° C | 71% | 1008.6 hPa | 0 mm | 0.89 m/s, 268° | - | - |
| 1777883012 | 15.56° C | 71% | 1008.6 hPa | 0 mm | 0.89 m/s, 268° | - | - |
| 1777882266 | 15.56° C | 70% | 1008.7 hPa | 0 mm | 0.45 m/s, 330° | - | - |
| 1777882126 | 15.56° C | 70% | 1008.5 hPa | 0 mm | 0 m/s | - | - |
| 1777881361 | 15.56° C | 68% | 1008.7 hPa | 0 mm | 0 m/s | - | - |
| 1777881252 | 15.56° C | 68% | 1008.7 hPa | 0 mm | 0 m/s | - | - |
| 1777880482 | 15.56° C | 69% | 1008.5 hPa | 0 mm | 0.45 m/s, 323° | - | - |
| 1777879726 | 16.11° C | 68% | 1008.7 hPa | 0 mm | 0.89 m/s, 314° | - | - |
| 1777879676 | 16.11° C | 68% | 1008.7 hPa | 0 mm | 0.89 m/s, 314° | - | - |
| 1777878851 | 16.11° C | 68% | 1008.8 hPa | 0 mm | 0.45 m/s, 310° | - | - |
| 1777878047 | 16.67° C | 67% | 1008.7 hPa | 0 mm | 0.45 m/s, 306° | - | - |
| 1777877921 | 16.67° C | 67% | 1008.7 hPa | 0 mm | 0.45 m/s, 313° | - | - |
| 1777877267 | 16.67° C | 67% | 1008.7 hPa | 0 mm | 0.89 m/s, 306° | - | - |
| 1777876961 | 17.22° C | 67% | 1008.6 hPa | 0 mm | 0.45 m/s, 292° | - | - |
* Rain latest hour (hover to see other rain measurements)
** Current wind speed in m/s (hover to see current wind gust speed)